SCP
0 0 0 0 0 0 0 0 0 0 0 0 0 0 0 0 0 0 0 0 0 0 0 0 0 0 0 0 0 0 0 0 0 0 0 0 0 0 0 0 0 0 0
0 0 0 0 0 0 0 0 0 0 0 0 0 0 0 0 0 0 0 0 0 0 0 0 0 0 0 0 0 0 0 0 0 0 0 0 0 0 0 0 0 0 0
0 0 0 0 0 0 0 0 0 0 0 0 0 0 0 0 0 0 0 0 0 0 0 0 0 0 0 0 0 0 0 0 0 0 0 0 0 0 0 0 0 0 0
0 0 0 0 0 0 0 0 0 0 0 0 0 0 0 0 0 0 0 0 0 0 0 0 0 0 0 0 0 0 0 0 0 0 0 0 0 0 0 0 0 0 0
0 0 0 0 0 0 0 0 0 0 0 0 0 0 0 0 0 0 0 0 0 0 0 0 0 0 0 0 0 0 0 0 0 0 0 0 0 0 0 0 0 0 0
0 0 0 0 0 0 0 0 0 0 0 0 0 0 0 0 0 0 0 0 0 0 0 0 0 0 0 0 0 0 0 0 0 0 0 0 0 0 0 0 0 0 0
0 0 0 0 0 0 0 0 0 0 0 0 0 0 0 0 0 0 0 0 0 0 0 0 0 0 0 0 0 0 0 0 0 0 0 0 0 0 0 0 0 0 0
0 0 0 0 0 0 0 0 0 0 0 0 0 0 0 0 0 0 0 0 0 0 0 0 0 0 0 0 0 0 0 0 0 0 0 0 0 0 0 0 0 0 0
0 0 1 0 0 0 0 0 0 0 0 0 0 0 0 0 0 0 0 0 0 0 0 0 0 0 0 0 0 0 0 0 0 0 0 0 0 0 0 0 0 0 0
0 0 0 0 1 0 0 0 0 0 0 0 0 0 0 0 0 0 0 0 0 0 0 0 0 0 0 0 0 0 0 0 0 0 0 0 0 0 0 0 0 0 0
0 0 0 0 0 0 0 0 0 0 0 0 0 0 0 0 0 0 0 0 0 0 0 0 0 0 0 0 0 0 0 0 0 0 0 0 0 0 0 0 0 0 0
0 0 0 0 0 0 0 0 0 0 0 0 0 0 0 0 0 0 0 0 0 0 0 0 0 0 0 0 0 0 0 0 0 0 0 0 0 0 0 0 0 0 0
0 0 0 0 0 0 0 0 0 0 0 0 0 0 0 0 0 0 0 0 0 0 0 0 0 0 0 0 0 0 0 0 0 0 0 0 0 0 0 0 0 0 0
0 0 0 0 0 0 0 0 0 0 0 0 0 0 0 0 0 0 0 0 0 0 0 0 0 0 0 0 0 0 0 0 0 0 0 0 0 0 0 0 0 0 0
0 0 0 0 0 0 0 0 0 0 0 0 0 0 0 0 0 0 0 0 0 0 0 0 0 0 0 0 0 0 0 0 0 0 0 0 0 0 0 0 0 0 0
0 0 0 0 0 0 0 0 0 0 0 0 0 0 0 0 0 0 0 0 0 0 0 0 0 0 0 0 0 0 0 0 0 0 0 0 0 0 0 0 0 0 0
0 0 0 0 0 0 0 0 0 0 0 0 0 0 0 0 0 0 0 0 0 0 0 0 0 0 0 0 0 0 0 0 0 0 0 0 0 0 0 0 0 0 0
0 0 0 0 0 0 0 0 0 0 0 0 0 0 0 0 0 0 0 0 0 0 0 0 0 0 0 0 0 0 0 0 0 0 0 0 0 0 0 0 0 0 0
0 0 0 0 0 0 0 0 0 0 0 0 0 0 0 0 0 0 0 0 0 0 0 0 0 0 0 0 0 0 0 0 0 0 0 0 0 0 0 0 0 0 0
0 0 0 0 0 0 0 0 0 0 0 0 0 0 0 0 0 0 0 0 0 0 0 0 0 0 0 0 0 0 0 0 0 0 0 0 0 0 0 0 0 0 0
0 0 0 0 0 0 0 0 0 0 0 0 0 0 0 0 0 0 0 0 0 0 0 0 0 0 0 0 0 0 0 0 0 0 0 0 0 0 0 0 0 0 0
0 0 0 0 0 0 0 0 0 0 0 0 0 0 0 0 0 0 0 0 0 0 0 0 0 0 0 0 0 0 0 0 0 0 0 0 0 0 0 0 0 0 0
0 0 0 0 0 0 0 0 0 0 0 0 0 0 0 0 0 0 0 0 0 0 0 0 0 0 0 0 0 0 0 0 0 0 0 0 0 0 0 0 0 0 0
0 0 0 0 0 0 0 0 0 0 0 0 0 0 0 0 0 0 0 0 0 0 0 0 0 0 0 0 0 0 0 0 0 0 0 0 0 0 0 0 0 0 0
0 0 0 0 0 0 0 0 0 0 0 0 0 0 0 0 0 0 0 0 0 0 0 0 0 0 0 0 0 0 0 0 0 0 0 0 0 0 0 0 0 0 0
0 0 0 0 0 0 0 0 0 0 0 0 0 0 0 0 0 0 0 0 0 0 0 0 0 0 0 0 0 0 0 0 0 0 0 0 0 0 0 0 0 0 0
Wind_Speed
4 4 4 5 6 5 5 5 5 5 5 4 4 3 3 3 4 6 5 10 11 11 10 9 9 9 8 8 8 8 8 7 7 7 7 8 8 8 8 9 9 9 10
4 4 4 4 5 4 5 5 5 4 4 3 4 3 3 3 3 6 6 7 11 11 11 10 10 9 8 8 8 7 7 6 6 6 6 6 6 6 7 7 7 8 8
6 5 4 4 4 4 5 4 5 3 3 3 3 4 3 4 4 5 7 5 6 9 11 11 11 10 9 8 8 7 6 5 4 4 4 4 4 4 5 6 6 7 7
6 5 4 4 5 4 4 4 3 3 3 3 3 3 3 3 4 5 6 7 6 5 7 11 11 11 10 9 8 7 6 5 3 2 2 2 3 4 4 5 6 6 7
7 6 5 4 5 4 4 4 4 4 4 4 3 3 3 3 3 3 5 7 7 7 5 8 10 10 11 10 9 8 6 5 3 2 0 1 2 4 5 6 6 7 8
7 7 5 6 6 4 5 4 5 4 4 5 4 3 3 3 3 4 4 4 6 8 8 7 6 7 11 11 10 9 7 5 4 3 2 2 3 4 5 7 8 9 10
7 7 6 6 6 6 6 6 5 6 4 4 3 2 2 2 4 4 4 4 5 6 7 8 6 5 5 11 11 10 8 7 5 4 3 3 4 5 6 8 9 10 11
7 6 7 6 7 6 7 8 6 5 5 5 4 3 2 3 5 5 4 5 5 5 6 8 8 7 6 4 7 10 9 7 6 5 4 4 5 6 7 9 10 11 12
8 7 7 7 6 7 6 8 7 8 6 6 5 5 5 6 3 3 6 5 4 4 5 5 6 7 8 6 5 8 9 7 6 5 4 5 6 7 9 10 11 12 13
9 9 9 8 7 6 7 8 8 7 7 6 5 4 3 3 4 2 2 2 4 4 4 4 4 5 6 5 7 11 10 9 7 6 6 6 8 9 10 12 13 14 14
7 9 9 8 8 7 8 8 8 8 8 7 6 4 5 3 2 4 3 2 2 2 2 3 3 3 4 5 5 8 11 9 7 6 6 7 9 11 12 13 14 14 15
4 6 7 8 8 8 8 9 9 9 9 9 7 6 5 5 5 5 4 3 3 2 1 1 2 2 3 4 5 9 10 9 7 7 7 9 11 12 13 14 15 16 16
2 4 4 6 6 7 8 8 8 9 9 8 8 7 6 6 3 5 5 4 3 1 1 1 1 2 2 3 3 8 9 8 7 8 9 10 12 13 14 15 16 17 17
2 3 3 3 4 5 6 7 7 7 6 8 8 7 5 4 3 3 4 5 4 2 2 3 1 1 2 2 4 8 4 8 8 9 11 12 13 15 15 16 17 17 18
3 3 2 2 2 2 3 3 4 4 4 4 4 4 3 2 2 1 1 3 6 6 6 5 3 2 2 2 5 3 2 6 9 11 13 14 15 15 16 16 17 17 18
5 4 4 3 3 3 2 1 0 1 1 1 1 3 3 3 3 3 2 1 1 3 3 2 2 2 3 3 5 3 4 9 11 13 14 15 16 16 16 17 17 18 18
6 6 5 5 5 5 5 4 3 3 3 4 4 4 5 5 4 3 3 2 2 2 3 2 2 2 2 3 2 3 3 4 5 13 15 16 16 16 17 17 18 18 19
6 7 7 8 8 7 7 6 6 6 5 5 6 6 6 5 6 4 3 3 3 3 3 3 2 2 3 3 3 3 4 4 4 11 15 16 16 16 17 18 18 18 18
8 8 8 9 8 8 8 8 8 8 7 7 7 7 6 6 6 5 5 4 3 3 3 3 2 1 1 2 2 3 4 4 5 8 12 13 15 16 16 17 17 18 18
9 9 9 9 9 9 9 9 9 9 9 9 8 7 7 6 5 5 4 4 3 3 2 2 1 1 1 2 2 2 3 2 3 4 8 11 13 15 16 17 18 19 19
9 8 9 9 8 8 8 9 8 9 9 9 9 8 7 8 8 5 4 3 3 2 1 1 1 0 1 1 1 1 2 2 3 4 3 4 5 5 8 14 17 18 19
9 9 9 9 9 8 13 14 10 8 8 8 8 7 6 7 8 7 6 4 2 1 1 0 0 1 1 1 1 1 1 2 3 2 3 5 5 6 6 6 14 19 19
8 9 9 9 9 11 16 16 14 8 8 6 5 4 4 4 5 3 2 2 2 2 2 1 1 2 2 1 1 1 2 3 5 4 4 8 5 7 7 9 18 19 20
7 7 8 8 8 11 14 14 13 7 6 5 4 4 3 3 3 3 3 2 2 2 3 1 2 3 3 3 2 3 4 4 5 4 3 6 5 6 7 6 15 20 20
6 6 6 7 7 7 11 10 8 3 4 4 4 4 4 4 4 4 3 2 3 3 5 5 6 7 10 11 8 3 2 3 5 4 2 3 4 4 5 6 8 14 15
5 5 5 5 5 5 8 9 8 3 3 2 2 2 3 3 5 5 2 2 3 3 3 4 5 7 6 7 10 4 3 3 3 4 2 2 3 4 6 4 3 4 7
Wind_Direction
170 178 179 172 180 183 183 185 206 206 197 196 199 191 166 170 139 127 140 148 150 154 154 152 149 143 135 126 116 107 98 89 81 74 67 61 55 50 46 43 38 34 30
180 184 188 178 183 186 176 185 204 202 186 189 192 182 168 166 152 138 144 153 159 163 166 167 164 158 151 143 132 122 111 100 87 77 66 59 50 41 36 33 29 24 19
185 185 189 185 187 187 183 183 203 198 183 181 189 188 181 182 171 151 151 155 161 170 176 179 175 170 165 158 149 139 127 111 97 81 64 52 41 27 20 16 12 6 3
190 187 192 196 190 186 187 185 192 185 180 174 184 199 183 172 181 174 162 160 163 170 183 186 182 180 176 173 167 158 148 136 121 98 64 40 21 4 356 351 348 346 344
198 191 195 201 195 192 190 187 186 178 179 184 192 194 191 180 197 191 176 169 166 165 168 184 179 180 181 183 180 173 167 159 155 154 104 357 345 340 334 330 329 328 327
202 198 197 204 201 196 195 189 187 188 183 180 185 188 199 190 191 197 198 180 167 165 163 165 164 176 181 187 188 186 183 181 186 202 228 277 308 316 316 317 319 319 318
212 205 202 203 206 205 199 193 185 194 199 167 148 193 247 217 204 204 200 190 178 171 163 166 168 167 181 191 193 193 193 194 202 218 240 265 288 304 311 313 314 313 312
230 222 211 207 207 210 206 200 192 186 193 176 156 144 216 254 249 216 199 200 191 176 176 173 172 169 173 170 190 190 194 202 214 225 244 270 290 302 306 307 307 308 308
223 226 225 218 212 211 215 210 200 193 198 198 180 167 179 210 217 226 212 199 190 179 182 175 174 170 167 164 171 187 186 197 213 230 251 272 287 295 299 302 303 304 305
217 220 221 219 219 218 218 216 211 204 192 199 211 219 207 169 164 200 254 212 191 185 182 183 177 168 160 152 164 174 182 192 210 231 255 275 287 294 298 301 303 304 304
221 219 218 217 220 222 222 219 216 213 206 200 194 194 218 233 195 158 201 223 216 204 177 171 165 160 155 146 153 172 182 195 214 234 257 278 289 295 299 302 302 303 303
237 226 222 220 220 221 222 222 221 218 215 211 204 195 184 190 197 186 180 180 200 212 140 114 137 143 141 139 164 176 188 201 221 245 266 281 290 297 300 302 301 301 300
273 253 234 227 224 224 223 221 222 224 220 216 213 209 206 207 183 185 186 164 151 123 83 64 67 92 124 117 149 174 194 210 233 256 272 284 294 299 301 300 298 297 297
295 296 275 256 240 230 227 224 225 225 221 220 219 211 207 205 191 185 176 157 151 163 197 208 149 153 140 132 171 180 204 223 247 266 277 285 292 295 295 294 294 295 295
331 333 326 306 294 272 239 222 225 227 221 224 215 200 190 159 143 140 141 168 169 183 207 196 182 172 157 148 184 177 197 242 259 270 276 282 286 287 289 290 292 293 292
4 3 3 9 14 18 18 39 166 168 154 138 116 131 122 109 100 92 89 68 122 166 167 148 160 156 164 178 196 191 225 253 267 276 280 283 283 284 286 288 289 289 288
20 21 26 34 39 41 41 52 59 70 90 86 86 100 100 101 102 93 89 88 75 100 135 113 106 128 157 176 207 219 236 250 267 275 280 283 284 285 286 287 287 286 286
34 37 44 49 48 47 47 55 64 67 78 85 87 93 97 98 95 92 88 86 80 69 113 129 143 159 186 193 207 232 248 252 249 271 279 283 285 286 286 286 285 285 285
42 43 48 53 53 53 55 58 66 70 72 78 83 92 96 100 97 91 88 86 82 72 69 115 126 136 179 204 217 244 251 257 263 276 285 289 291 291 289 288 288 287 286
52 51 53 55 56 58 62 65 70 73 74 72 72 75 79 85 92 94 92 92 90 84 82 99 128 169 202 214 211 239 265 267 278 290 289 290 292 296 296 295 294 292 289
58 59 62 61 60 61 65 72 73 77 78 76 71 68 74 87 92 87 91 92 92 95 108 131 169 199 224 227 234 231 258 289 290 276 277 287 297 293 292 291 292 289 286
60 62 64 66 66 70 80 81 81 75 76 77 76 70 71 67 73 73 78 80 81 83 79 124 239 242 258 262 258 259 281 316 301 302 322 295 287 282 278 268 282 287 288
67 67 67 69 70 73 78 80 80 77 77 77 78 76 75 78 68 48 28 13 337 307 275 230 244 263 275 269 282 299 278 264 261 274 296 287 275 275 274 283 293 295 297
70 71 68 67 70 72 76 79 81 76 77 75 70 65 66 73 69 41 14 9 338 313 289 255 227 254 270 266 241 241 248 269 273 273 267 278 282 276 283 282 292 293 295
75 73 72 71 71 68 69 71 73 74 79 75 68 58 48 35 23 17 15 344 327 316 316 311 287 282 282 284 279 269 274 289 293 290 262 261 285 298 286 279 285 293 298
82 81 77 76 80 74 66 60 54 51 59 56 57 71 68 33 359 356 2 340 320 313 333 331 317 307 299 291 290 260 212 235 271 289 279 294 298 327 306 282 275 287 293